This is the latest recevied weather packets stored in our database for station/object KB2AHZ. If no packets are shown the sender has not sent any weather packets the latest 10 day(s).
| Time | Temp. | Humidity | Pressure | Rain* | Wind** | Luminosity | Snow |
|---|---|---|---|---|---|---|---|
| 1778012688 | 27.22° C | 40% | 1013.7 hPa | 0 mm | - | 409 W/m² | - |
| 1778012383 | 27.22° C | 40% | 1013.4 hPa | 0 mm | - | 428 W/m² | - |
| 1778012081 | 27.22° C | 39% | 1013.6 hPa | 0 mm | - | 428 W/m² | - |
| 1778011778 | 27.22° C | 39% | 1013.6 hPa | 0 mm | - | 726 W/m² | - |
| 1778011476 | 27.22° C | 40% | 1013.7 hPa | 0 mm | - | 622 W/m² | - |
| 1778011171 | 27.22° C | 40% | 1013.6 hPa | 0 mm | - | 644 W/m² | - |
| 1778010868 | 26.67° C | 39% | 1014 hPa | 0 mm | - | 502 W/m² | - |
| 1778010566 | 26.67° C | 40% | 1014.1 hPa | 0 mm | - | 388 W/m² | - |
| 1778010263 | 27.22° C | 39% | 1014 hPa | 0 mm | - | 350 W/m² | - |
| 1778009963 | 27.22° C | 38% | 1014.1 hPa | 0 mm | - | 405 W/m² | - |
| 1778009661 | 27.22° C | 37% | 1013.8 hPa | 0 mm | - | 732 W/m² | - |
| 1778009359 | 27.22° C | 37% | 1014.1 hPa | 0 mm | - | 667 W/m² | - |
| 1778009057 | 27.22° C | 38% | 1014.1 hPa | 0 mm | - | 525 W/m² | - |
| 1778008754 | 27.78° C | 38% | 1014 hPa | 0 mm | - | 502 W/m² | - |
| 1778008453 | 27.78° C | 37% | 1014.3 hPa | 0 mm | - | 846 W/m² | - |
| 1778008149 | 27.78° C | 38% | 1014.2 hPa | 0 mm | - | 817 W/m² | - |
| 1778007844 | 27.22° C | 38% | 1014.2 hPa | 0 mm | - | 673 W/m² | - |
| 1778007540 | 27.22° C | 36% | 1014.6 hPa | 0 mm | - | 542 W/m² | - |
| 1778007237 | 27.22° C | 37% | 1014.6 hPa | 0 mm | - | 583 W/m² | - |
| 1778006933 | 27.22° C | 37% | 1014.5 hPa | 0 mm | - | 595 W/m² | - |
| 1778006630 | 27.78° C | 37% | 1014.6 hPa | 0 mm | - | 739 W/m² | - |
| 1778006327 | 27.78° C | 37% | 1014.9 hPa | 0 mm | - | 829 W/m² | - |
| 1778006024 | 28.33° C | 37% | 1014.9 hPa | 0 mm | - | 876 W/m² | - |
| 1778005720 | 27.78° C | 37% | 1014.9 hPa | 0 mm | - | 867 W/m² | - |
| 1778005417 | 27.78° C | 37% | 1015.1 hPa | 0 mm | - | 887 W/m² | - |
* Rain latest hour (hover to see other rain measurements)
** Current wind speed in m/s (hover to see current wind gust speed)